EW1734 Weather Reports


Display with metric or nautical units.
time (UTC)temp
F
wind
direction
speed
MPH
gust
MPH
rain 1hr
in
rain 24hr
in
rain mn
in
humidity
%
barometer
mb
20260510123105 54 14 2.0 3.0 0.00 0.00 0.00 92 1013.1
20260510122601 55 44 1.0 3.0 0.00 0.00 0.00 91 1012.7
20260510122057 55 40 0.0 3.0 0.00 0.00 0.00 90 1013.1
20260510121554 55 13 3.0 4.0 0.00 0.00 0.00 89 1013.1
20260510121051 55 39 1.0 3.0 0.00 0.00 0.00 87 1012.9
20260510120549 55 56 2.0 3.0 0.00 0.00 0.00 87 1012.9
20260510120044 55 63 1.0 3.0 0.00 0.00 0.00 88 1012.6
20260510115541 55 45 0.0 3.0 0.00 0.00 0.00 88 1012.9
20260510115038 55 38 2.0 3.0 0.00 0.00 0.00 88 1012.9
20260510114533 55 31 2.0 3.0 0.00 0.00 0.00 88 1012.9
20260510114030 55 54 2.0 3.0 0.00 0.00 0.00 87 1012.9
20260510113525 55 42 2.0 3.0 0.00 0.00 0.00 87 1012.7
20260510113023 55 52 2.0 2.0 0.00 0.00 0.00 88 1012.7
20260510112520 56 43 2.0 2.0 0.00 0.00 0.00 88 1012.6
20260510112016 56 27 2.0 4.0 0.00 0.00 0.00 87 1012.7
20260510111513 56 45 3.0 3.0 0.00 0.00 0.00 87 1012.6
20260510111009 56 58 1.0 1.0 0.00 0.00 0.00 87 1012.9
20260510110505 55 71 1.0 2.0 0.00 0.00 0.00 86 1012.5
20260510110002 55 56 1.0 2.0 0.00 0.00 0.00 86 1012.6
20260510105456 54 51 2.0 2.0 0.00 0.00 0.00 86 1012.5
20260510104952 54 39 2.0 2.0 0.00 0.00 0.00 86 1012.6
20260510104449 54 96 2.0 3.0 0.00 0.00 0.00 86 1012.6
20260510103945 54 54 2.0 2.0 0.00 0.00 0.00 87 1012.6
20260510103443 55 52 2.0 2.0 0.00 0.00 0.00 87 1012.7
20260510102938 55 51 0.0 2.0 0.00 0.00 0.00 86 1012.5
20260510102434 55 73 2.0 3.0 0.00 0.00 0.00 86 1012.5
20260510101931 55 29 1.0 2.0 0.00 0.00 0.00 85 1012.5
20260510101429 55 44 2.0 2.0 0.00 0.00 0.00 84 1012.9
20260510100927 55 26 2.0 3.0 0.00 0.00 0.00 84 1012.5
20260510100423 55 76 2.0 3.0 0.00 0.00 0.00 83 1012.7
20260510095919 55 81 1.0 3.0 0.00 0.00 0.00 83 1012.6
20260510095415 55 80 0.0 2.0 0.00 0.00 0.00 84 1012.6
20260510094914 55 57 2.0 2.0 0.00 0.00 0.00 83 1012.9
20260510094409 55 64 1.0 3.0 0.00 0.00 0.00 83 1012.7
20260510093906 56 64 2.0 3.0 0.00 0.00 0.00 82 1013.0
20260510093401 56 57 2.0 2.0 0.00 0.00 0.00 82 1012.7
20260510092858 56 58 2.0 2.0 0.00 0.00 0.00 81 1012.6
20260510092355 56 44 2.0 2.0 0.00 0.00 0.00 81 1012.6
20260510091850 56 40 2.0 2.0 0.00 0.00 0.00 81 1012.9
20260510091347 56 49 2.0 2.0 0.00 0.00 0.00 81 1012.6
20260510090844 56 81 1.0 3.0 0.00 0.00 0.00 81 1012.7
20260510090340 57 31 0.0 3.0 0.00 0.00 0.00 81 1012.5
20260510085835 57 80 1.0 3.0 0.00 0.00 0.00 80 1012.6
20260510085330 57 32 0.0 2.0 0.00 0.00 0.00 80 1012.6
20260510084826 57 56 2.0 3.0 0.00 0.00 0.00 79 1012.6
20260510084324 57 89 0.0 2.0 0.00 0.00 0.00 79 1012.6
20260510083820 57 35 2.0 2.0 0.00 0.00 0.00 79 1012.6
20260510083312 57 14 0.0 2.0 0.00 0.00 0.00 79 1012.5
20260510082812 58 61 2.0 2.0 0.00 0.00 0.00 78 1012.6
20260510082306 58 60 0.0 2.0 0.00 0.00 0.00 78 1012.7
20260510081803 58 16 2.0 3.0 0.00 0.00 0.00 78 1012.6
20260510081259 58 60 2.0 2.0 0.00 0.00 0.00 78 1013.0
20260510080755 58 57 2.0 2.0 0.00 0.00 0.00 78 1013.0
20260510080249 58 69 1.0 2.0 0.00 0.00 0.00 78 1012.9
20260510075747 58 60 2.0 2.0 0.00 0.00 0.00 78 1013.0
20260510075245 59 108 0.0 1.0 0.00 0.00 0.00 78 1013.2
20260510074741 59 70 1.0 2.0 0.00 0.00 0.00 77 1013.0
20260510074238 59 61 2.0 3.0 0.00 0.00 0.00 77 1013.1
20260510073734 59 45 2.0 2.0 0.00 0.00 0.00 78 1013.1
20260510073231 59 44 2.0 3.0 0.00 0.00 0.00 77 1013.1
20260510072726 59 55 1.0 2.0 0.00 0.00 0.00 76 1013.1
20260510072223 59 35 1.0 3.0 0.00 0.00 0.00 76 1013.1
20260510071720 59 44 2.0 3.0 0.00 0.00 0.00 76 1013.0
20260510071216 60 38 2.0 2.0 0.00 0.00 0.00 75 1013.1
20260510070714 60 4 0.0 2.0 0.00 0.00 0.00 75 1013.2
20260510070212 60 89 0.0 2.0 0.00 0.00 0.00 75 1013.1
20260510065706 60 46 2.0 2.0 0.00 0.00 0.00 75 1013.3
20260510065203 60 17 2.0 3.0 0.00 0.00 0.00 75 1013.2
20260510064659 60 40 0.0 2.0 0.00 0.00 0.00 75 1013.2
20260510064157 61 25 1.0 3.0 0.00 0.00 0.00 75 1013.1
20260510063654 61 41 1.0 3.0 0.00 0.00 0.00 74 1013.1
20260510063150 61 338 2.0 3.0 0.00 0.00 0.00 74 1013.1
20260510062646 61 53 0.0 2.0 0.00 0.00 0.00 75 1013.2
20260510062142 61 20 2.0 4.0 0.00 0.00 0.00 74 1013.1
20260510061637 61 23 2.0 4.0 0.00 0.00 0.00 74 1013.2
20260510061135 61 13 4.0 4.0 0.00 0.00 0.00 74 1013.2
20260510060631 62 14 2.0 3.0 0.00 0.00 0.00 74 1013.1
20260510060128 62 10 3.0 3.0 0.00 0.00 0.00 74 1013.1
20260510055624 62 53 0.0 2.0 0.00 0.00 0.00 74 1013.2
20260510055123 62 50 0.0 2.0 0.00 0.00 0.00 74 1013.3
20260510054618 62 326 0.0 2.0 0.00 0.00 0.00 74 1013.2
20260510054113 62 39 2.0 2.0 0.00 0.00 0.00 73 1013.2
20260510053613 63 17 2.0 2.0 0.00 0.00 0.00 73 1013.2
20260510053110 63 25 2.0 3.0 0.00 0.00 0.00 72 1013.2
20260510052605 63 28 0.0 2.0 0.00 0.00 0.00 72 1013.0
20260510052102 63 32 2.0 2.0 0.00 0.00 0.00 72 1013.2
20260510051557 64 39 2.0 2.0 0.00 0.00 0.00 71 1013.1
20260510051055 64 37 1.0 2.0 0.00 0.00 0.00 71 1013.2
20260510050552 64 56 0.0 2.0 0.00 0.00 0.00 71 1013.2
20260510050049 64 89 0.0 1.0 0.00 0.00 0.00 71 1013.2
20260510045546 64 56 1.0 1.0 0.00 0.00 0.00 70 1013.2
20260510045042 65 60 0.0 1.0 0.00 0.00 0.00 71 1013.1
20260510044538 65 49 1.0 2.0 0.00 0.00 0.00 70 1013.0
20260510044036 65 89 1.0 2.0 0.00 0.00 0.00 69 1013.2
20260510043532 66 89 0.0 0.0 0.00 0.00 0.00 69 1013.1
20260510043027 66 45 0.0 2.0 0.00 0.00 0.00 68 1012.9
20260510042522 67 36 3.0 3.0 0.00 0.00 0.00 67 1012.9
20260510042021 67 25 0.0 2.0 0.00 0.00 0.00 67 1012.6
20260510041519 67 43 1.0 3.0 0.00 0.00 0.00 67 1012.9
20260510041016 68 88 0.0 2.0 0.00 0.00 0.00 67 1012.7
20260510040513 68 66 3.0 3.0 0.00 0.00 0.00 67 1012.5
20260510040008 68 113 0.0 2.0 0.00 0.00 0.00 66 1012.4
20260510035506 69 141 0.0 2.0 0.00 0.00 0.00 66 1012.4
20260510035004 69 143 2.0 2.0 0.00 0.00 0.00 64 1012.3
20260510034505 69 130 0.0 4.0 0.00 0.00 0.00 64 1012.3
20260510034000 70 84 1.0 2.0 0.00 0.00 0.00 63 1012.3
20260510033456 70 148 1.0 5.0 0.00 0.00 0.00 62 1012.2
20260510032954 70 67 2.0 4.0 0.00 0.00 0.00 63 1012.2
20260510032451 70 213 0.0 2.0 0.00 0.00 0.00 65 1012.2
20260510031950 70 68 1.0 2.0 0.00 0.00 0.00 64 1011.8
20260510031446 70 89 0.0 2.0 0.00 0.00 0.00 63 1011.9
20260510030942 71 131 0.0 1.0 0.00 0.00 0.00 63 1011.8
20260510030437 71 312 1.0 2.0 0.00 0.00 0.00 62 1011.7
20260510025935 71 309 0.0 1.0 0.00 0.00 0.00 62 1011.8
20260510025432 71 186 0.0 0.0 0.00 0.00 0.00 62 1011.6
20260510024930 72 160 1.0 2.0 0.00 0.00 0.00 61 1011.4
20260510024426 72 43 0.0 1.0 0.00 0.00 0.00 61 1011.4
20260510023922 73 319 0.0 2.0 0.00 0.00 0.00 60 1011.5
20260510023419 73 269 0.0 1.0 0.00 0.00 0.00 60 1011.4
20260510022916 73 36 0.0 1.0 0.00 0.00 0.00 59 1011.3
20260510022415 74 269 0.0 1.0 0.00 0.00 0.00 58 1011.3
20260510021914 74 89 0.0 1.0 0.00 0.00 0.00 58 1011.4
20260510021412 75 254 1.0 2.0 0.00 0.00 0.00 57 1011.1
20260510020909 75 359 0.0 2.0 0.00 0.00 0.00 57 1011.2
20260510020404 76 283 0.0 3.0 0.00 0.00 0.00 56 1011.0
20260510015859 76 285 1.0 2.0 0.00 0.00 0.00 55 1011.0
20260510015355 77 17 0.0 2.0 0.00 0.00 0.00 55 1011.1
20260510014851 77 265 1.0 2.0 0.00 0.00 0.00 55 1011.0
20260510014349 77 330 2.0 2.0 0.00 0.00 0.00 54 1011.0
20260510013844 77 37 2.0 3.0 0.00 0.00 0.00 53 1011.0
20260510013340 78 246 1.0 3.0 0.00 0.00 0.00 53 1010.9
20260510012835 78 355 0.0 4.0 0.00 0.00 0.00 53 1011.0
20260510012335 78 339 1.0 4.0 0.00 0.00 0.00 53 1010.9
20260510011830 79 343 0.0 3.0 0.00 0.00 0.00 52 1010.8
20260510011326 80 323 1.0 3.0 0.00 0.00 0.00 50 1011.0
20260510010822 80 185 1.0 2.0 0.00 0.00 0.00 50 1011.0
20260510010320 80 297 3.0 4.0 0.00 0.00 0.00 50 1010.9
20260510005816 80 322 2.0 3.0 0.00 0.00 0.00 50 1011.1
20260510005313 81 307 2.0 3.0 0.00 0.00 0.00 50 1010.8
20260510004810 81 357 3.0 6.0 0.00 0.00 0.00 49 1010.8
20260510004308 82 316 2.0 3.0 0.00 0.00 0.00 48 1010.9
20260510003805 82 295 2.0 3.0 0.00 0.00 0.00 48 1010.9
20260510003302 82 339 2.0 4.0 0.00 0.00 0.00 49 1010.8
20260510002801 84 347 2.0 3.0 0.00 0.00 0.00 47 1010.8
20260510002258 84 316 2.0 4.0 0.00 0.00 0.00 46 1010.8
20260510001755 85 343 0.0 3.0 0.00 0.00 0.00 45 1010.8
20260510001253 85 338 2.0 2.0 0.00 0.00 0.00 45 1010.8
20260510000748 85 268 1.0 4.0 0.00 0.00 0.00 45 1011.0
20260510000248 87 7 2.0 3.0 0.00 0.00 0.00 44 1010.9
20260509235743 88 325 0.0 3.0 0.00 0.00 0.00 42 1010.9
20260509235240 87 244 2.0 4.0 0.00 0.00 0.00 43 1010.9
20260509234735 87 303 2.0 4.0 0.00 0.00 0.00 43 1010.9
20260509234232 87 266 1.0 3.0 0.00 0.00 0.00 43 1010.9
20260509233731 87 274 2.0 4.0 0.00 0.00 0.00 42 1010.9
20260509233228 87 278 2.0 3.0 0.00 0.00 0.00 42 1010.9
20260509232724 86 245 3.0 6.0 0.00 0.00 0.00 43 1011.0
20260509232221 87 13 2.0 4.0 0.00 0.00 0.00 43 1010.9
20260509231717 88 290 3.0 3.0 0.00 0.00 0.00 42 1010.9
20260509231215 88 319 3.0 4.0 0.00 0.00 0.00 41 1011.0
20260509230712 88 291 2.0 6.0 0.00 0.00 0.00 42 1011.1
20260509230209 87 241 4.0 4.0 0.00 0.00 0.00 41 1011.0
20260509225704 88 348 1.0 2.0 0.00 0.00 0.00 42 1010.9
20260509225200 87 298 2.0 5.0 0.00 0.00 0.00 42 1011.2
20260509224656 88 291 1.0 3.0 0.00 0.00 0.00 41 1011.1
20260509224153 89 293 3.0 4.0 0.00 0.00 0.00 41 1011.0
20260509223650 87 316 2.0 4.0 0.00 0.00 0.00 42 1011.3
20260509223147 87 244 3.0 5.0 0.00 0.00 0.00 42 1011.1
20260509222644 87 231 0.0 4.0 0.00 0.00 0.00 42 1011.3
20260509222139 88 228 2.0 5.0 0.00 0.00 0.00 42 1011.4
20260509221636 88 237 1.0 2.0 0.00 0.00 0.00 42 1011.5
20260509221131 86 10 2.0 3.0 0.00 0.00 0.00 42 1011.6
20260509220628 84 158 1.0 5.0 0.00 0.00 0.00 45 1011.6
20260509220124 85 358 3.0 4.0 0.00 0.00 0.00 44 1011.4
20260509215620 85 237 0.0 7.0 0.00 0.00 0.00 43 1011.6
20260509215117 83 1 2.0 5.0 0.00 0.00 0.00 45 1011.7
20260509214614 84 158 2.0 6.0 0.00 0.00 0.00 44 1011.7
20260509214111 84 112 2.0 9.0 0.00 0.00 0.00 44 1011.7
20260509213607 84 247 3.0 7.0 0.00 0.00 0.00 44 1011.8
20260509213103 84 117 0.0 8.0 0.00 0.00 0.00 43 1012.0
20260509212601 84 1 4.0 4.0 0.00 0.00 0.00 43 1012.0
20260509212058 83 144 2.0 11.0 0.00 0.00 0.00 45 1012.0
20260509211553 83 17 2.0 3.0 0.00 0.00 0.00 42 1012.0
20260509211050 83 187 4.0 8.0 0.00 0.00 0.00 42 1012.1
20260509210548 82 183 0.0 6.0 0.00 0.00 0.00 43 1012.1
20260509210044 84 142 5.0 5.0 0.00 0.00 0.00 42 1011.9
20260509205543 84 229 3.0 5.0 0.00 0.00 0.00 41 1012.1
20260509205039 84 266 4.0 4.0 0.00 0.00 0.00 42 1012.2
20260509204535 82 155 3.0 10.0 0.00 0.00 0.00 44 1012.4
20260509204032 82 204 4.0 6.0 0.00 0.00 0.00 44 1012.4
20260509203528 82 144 4.0 10.0 0.00 0.00 0.00 45 1012.5
20260509203027 82 251 2.0 6.0 0.00 0.00 0.00 44 1012.4
20260509202526 82 112 1.0 6.0 0.00 0.00 0.00 45 1012.5
20260509202022 81 344 3.0 6.0 0.00 0.00 0.00 46 1012.5
20260509201517 81 206 2.0 5.0 0.00 0.00 0.00 46 1012.5
20260509201010 80 247 1.0 6.0 0.00 0.00 0.00 47 1012.6
20260509200509 80 158 3.0 5.0 0.00 0.00 0.00 47 1012.7
20260509200006 80 50 2.0 5.0 0.00 0.00 0.00 48 1012.3
20260509195502 81 172 1.0 5.0 0.00 0.00 0.00 48 1012.7
20260509195001 80 170 1.0 3.0 0.00 0.00 0.00 48 1012.7
20260509194457 80 232 0.0 3.0 0.00 0.00 0.00 48 1012.7
20260509193955 79 160 1.0 4.0 0.00 0.00 0.00 49 1012.9
20260509193454 79 136 4.0 7.0 0.00 0.00 0.00 49 1013.0
20260509192950 78 209 4.0 9.0 0.00 0.00 0.00 50 1013.1
20260509192447 78 36 0.0 5.0 0.00 0.00 0.00 53 1013.1
20260509191942 77 140 3.0 5.0 0.00 0.00 0.00 51 1013.1
20260509191438 77 210 3.0 5.0 0.00 0.00 0.00 51 1013.1
20260509190934 78 113 2.0 6.0 0.00 0.00 0.00 50 1013.3
20260509190431 78 193 3.0 4.0 0.00 0.00 0.00 51 1013.5
20260509185929 77 122 2.0 10.0 0.00 0.00 0.00 53 1013.3
20260509185426 77 105 1.0 4.0 0.00 0.00 0.00 53 1013.4
20260509184923 78 224 3.0 3.0 0.00 0.00 0.00 52 1013.2
20260509184420 77 177 2.0 6.0 0.00 0.00 0.00 52 1013.6
20260509183916 76 261 0.0 3.0 0.00 0.00 0.00 55 1013.4
20260509183411 77 179 1.0 5.0 0.00 0.00 0.00 53 1013.6
20260509182909 77 226 0.0 4.0 0.00 0.00 0.00 54 1013.7
20260509182405 77 297 1.0 3.0 0.00 0.00 0.00 54 1013.7
20260509181902 75 15 0.0 2.0 0.00 0.00 0.00 58 1013.8
20260509181359 75 204 4.0 5.0 0.00 0.00 0.00 57 1013.7
20260509180857 74 205 2.0 3.0 0.00 0.00 0.00 59 1013.9
20260509180352 74 244 1.0 3.0 0.00 0.00 0.00 58 1013.8
20260509175850 75 203 5.0 5.0 0.00 0.00 0.00 58 1014.0
20260509175345 74 346 0.0 2.0 0.00 0.00 0.00 59 1013.8
20260509174841 72 205 3.0 4.0 0.00 0.00 0.00 61 1013.8
20260509174337 73 227 0.0 4.0 0.00 0.00 0.00 61 1013.7
20260509173833 72 297 0.0 6.0 0.00 0.00 0.00 62 1014.0
20260509173329 72 206 0.0 3.0 0.00 0.00 0.00 63 1014.0
20260509172825 73 203 0.0 3.0 0.00 0.00 0.00 60 1013.7
20260509172322 72 205 0.0 3.0 0.00 0.00 0.00 62 1014.0
20260509171818 70 209 0.0 3.0 0.00 0.00 0.00 66 1013.8
20260509171314 71 164 1.0 2.0 0.00 0.00 0.00 67 1013.8
20260509170810 70 190 1.0 3.0 0.00 0.00 0.00 67 1013.9
20260509170306 71 333 1.0 2.0 0.00 0.00 0.00 66 1013.7
20260509165806 71 254 2.0 2.0 0.00 0.00 0.00 66 1013.8
20260509165300 70 240 2.0 2.0 0.00 0.00 0.00 68 1013.8
20260509164757 68 287 0.0 1.0 0.00 0.00 0.00 71 1013.7
20260509164253 68 34 2.0 3.0 0.00 0.00 0.00 72 1014.0
20260509163750 67 254 0.0 2.0 0.00 0.00 0.00 73 1013.8
20260509163246 67 226 2.0 3.0 0.00 0.00 0.00 73 1014.1
20260509162746 66 214 2.0 3.0 0.00 0.00 0.00 75 1014.0
20260509162245 66 153 0.0 4.0 0.00 0.00 0.00 76 1014.0
20260509161741 65 53 3.0 4.0 0.00 0.00 0.00 77 1014.3
20260509161237 64 34 3.0 3.0 0.00 0.00 0.00 79 1014.2
20260509160732 64 33 1.0 2.0 0.00 0.00 0.00 81 1014.1
20260509160229 62 102 0.0 3.0 0.00 0.00 0.00 85 1014.2
20260509155724 61 167 1.0 3.0 0.00 0.00 0.00 85 1014.2
20260509155221 61 151 0.0 2.0 0.00 0.00 0.00 86 1014.1
20260509154717 61 146 1.0 2.0 0.00 0.00 0.00 87 1014.3
20260509154214 60 208 1.0 2.0 0.00 0.00 0.00 88 1014.2
20260509153711 60 22 0.0 1.0 0.00 0.00 0.00 89 1014.2
20260509153208 60 89 0.0 2.0 0.00 0.00 0.00 90 1014.2
20260509152704 59 114 0.0 2.0 0.00 0.00 0.00 90 1014.3
20260509152200 59 287 0.0 1.0 0.00 0.00 0.00 91 1014.2
20260509151657 59 142 0.0 1.0 0.00 0.00 0.00 92 1014.1
20260509151154 58 217 0.0 1.0 0.00 0.00 0.00 92 1014.2
20260509150652 58 233 0.0 1.0 0.00 0.00 0.00 92 1014.2
20260509150150 58 44 0.0 1.0 0.00 0.00 0.00 92 1014.1
20260509145646 58 136 1.0 1.0 0.00 0.00 0.00 93 1014.1
20260509145142 58 50 0.0 2.0 0.00 0.00 0.00 93 1014.0
20260509144638 58 124 0.0 1.0 0.00 0.00 0.00 94 1014.0
20260509144136 57 55 0.0 1.0 0.00 0.00 0.00 94 1014.1
20260509143633 57 75 0.0 2.0 0.00 0.00 0.00 95 1014.0
20260509143130 57 100 1.0 2.0 0.00 0.00 0.00 95 1014.0
20260509142625 57 67 1.0 2.0 0.00 0.00 0.00 95 1014.0
20260509142122 56 9 0.0 3.0 0.00 0.00 0.00 95 1014.1
20260509141618 56 8 2.0 3.0 0.00 0.00 0.00 95 1013.9
20260509141114 56 28 3.0 4.0 0.00 0.00 0.00 95 1014.1
20260509140612 56 26 1.0 3.0 0.00 0.00 0.00 95 1013.9
20260509140110 56 85 2.0 4.0 0.00 0.00 0.00 95 1013.9
20260509135607 56 89 3.0 3.0 0.00 0.00 0.00 95 1014.0
20260509135105 56 25 2.0 4.0 0.00 0.00 0.00 95 1013.9
20260509134601 56 356 1.0 4.0 0.00 0.00 0.00 95 1013.9
20260509134058 56 7 1.0 4.0 0.00 0.00 0.00 95 1013.8
20260509133555 56 354 1.0 3.0 0.00 0.00 0.00 95 1014.0
20260509133053 56 16 3.0 3.0 0.00 0.00 0.00 95 1013.8
20260509132551 56 60 2.0 4.0 0.00 0.00 0.00 94 1013.9
20260509132049 56 27 2.0 4.0 0.00 0.00 0.00 94 1013.6
20260509131545 56 74 0.0 2.0 0.00 0.00 0.00 94 1013.7
20260509131042 56 358 2.0 3.0 0.00 0.00 0.00 94 1013.7
20260509130537 57 26 4.0 4.0 0.00 0.00 0.00 94 1013.5
20260509130035 56 3 2.0 3.0 0.00 0.00 0.00 94 1013.6
20260509125531 56 358 0.0 2.0 0.00 0.00 0.00 94 1013.7
20260509125027 56 68 1.0 3.0 0.00 0.00 0.00 93 1013.7
20260509124524 56 30 2.0 4.0 0.00 0.00 0.00 93 1013.6
20260509124022 56 24 3.0 4.0 0.00 0.00 0.00 93 1013.6
20260509123520 56 57 2.0 2.0 0.00 0.00 0.00 93 1013.5